Retour au catalogue

STARLINK-30597

ActifCommunicationsVLEO
NORAD 58078·PAYLOAD·🇺🇸 United States

Lancé Oct 18, 2023 depuis Cape Canaveral Space Force Station

Loading…

Prochains Passages (prochaines 24 heures)

TLE

FraisSource: CelesTrak SupGP

Époque: Sep 14, 2026, 22:07 UTC

1 58078C 23160D   26257.92201389  .00047803  00000+0  17315-2 0  2573
2 58078  43.0000  88.9247 0001454 270.8568 302.3830 15.27552508    15

Suivez STARLINK-30597 en temps réel avec AllMySat

Download on the App Store